Regional Weather Roundup
Issued by NWS Portland, ME

Current Version | Previous Version | Text Only | Print | Product List | Glossary Off
Versions: 1 2 3 4 5 6 7 8 9 10 11 12 13 14 15 16 17 18 19 20 21 22 23 24 25 26 27 28 29 30 31 32 33 34 35 36 37 38 39 40 41 42 43 44 45 46 47 48 49 50
000 ASUS41 KGYX 192110 RWRGYX WEATHER ROUNDUP FOR MAINE AND NEW HAMPSHIRE NATIONAL WEATHER SERVICE GRAY ME 500 PM EDT FRI OCT 19 2018 MEZ002-005-006-010-012-015-018-020-021-024-026-027-029-192200- MAINE CITY SKY/WX TMP DP RH WIND PRES REMARKS PORTLAND FAIR 55 40 56 S5 29.93F SANFORD FAIR 57 39 51 SW7 29.93F BAR HARBOR MOCLDY 48 40 73 S16 29.96F WISCASSET FAIR 52 39 61 VRB6 29.96F ROCKLAND FAIR 50 40 68 SW8G16 29.96F FRYEBURG FAIR 56 37 49 S6 29.90F LEWISTONAUBURN FAIR 55 37 50 S8 29.91F AUGUSTA FAIR 50 37 61 S10 29.92F WATERVILLE FAIR 51 36 56 S8 29.89S BANGOR FAIR 50 38 63 S12 29.92S GREENVILLE N/A 47 31 53 S6 29.83F MILLINOCKET FAIR 49 31 49 MISG 29.89F HOULTON NOT AVBL PRESQUE ISLE CLOUDY 38 26 62 S10 29.87F FRENCHVILLE CLOUDY 35 25 66 SE9 29.83F CARIBOU CLOUDY 37 25 61 S9 29.85F $$ NHZ002-005-008-009-011-012-014-192200- NEW HAMPSHIRE CITY SKY/WX TMP DP RH WIND PRES REMARKS PORTSMOUTH PTCLDY 59 36 42 SW7 29.93F ROCHESTER FAIR 57 39 51 VRB5 29.93F NASHUA FAIR 58 38 47 CALM 29.96F MANCHESTER FAIR 60 36 40 SW7 29.94S CONCORD FAIR 60 38 43 VRB6 29.94S LACONIA FAIR 59 38 45 SW12 29.91F PLYMOUTH FAIR 61 36 38 SW3 29.90F BERLIN FAIR 57 36 45 VRB6 29.85F WHITEFIELD FAIR 58 37 45 W9 29.87F JAFFREY FAIR 56 37 49 S10G21 29.96F KEENE FAIR 60 37 42 SW8 29.95F LEBANON FAIR 62 39 42 S6 29.91F MT WASHINGTON PTCLDY 34 25 69 W48 N/A WCI 17 $$ VTZ005-007-008-192200- VERMONT CITY SKY/WX TMP DP RH WIND PRES REMARKS ST JOHNSBURY N/A 58 37 45 MISG 29.85F MONTPELIER FAIR 57 38 48 S9 29.91F BURLINGTON FAIR 60 38 43 S18G25 29.86S $$ MAZ007-012-024-CTZ003-RIZ002-NYZ038-NYZ072-192200- SOUTHERN NEW ENGLAND AND NY CITY SKY/WX TMP DP RH WIND PRES REMARKS BOSTON FAIR 62 32 32 SW18 29.97F WORCESTER FAIR 55 35 47 SW13G21 29.99F NANTUCKET FAIR 57 45 64 SW22G32 30.07F PROVIDENCE MOCLDY 57 38 48 SW14 30.03F HARTFORD PTSUNNY 60 34 37 S14 29.99F ALBANY FAIR 59 37 44 S13G20 29.96F NEW YORK CITY PTSUNNY 61 31 32 SW15 30.06F $$ ANZ081-ANZ082-ANZ150-NHZ014-MEZ023>029-192200- COASTAL MARINE OBSERVATIONS STATION/POSITION TIME TEMP WIND PRES WAVE AIR SEA DIR/SP/G HT/PER (UTC) (F) (DEG/KT/KT) (MB) (FT/S) MOUNT DESERT ROC 2100 49 190/ 24/ 28 1014.9F MATINICUS ROCK 2000 50 220/ 24/ 26 1015.1F ISLE OF SHOALS 2000 57 230/ 18/ 19 1014.1F JEFFREYS LEDGE 2006 55 N/A 4/ 5 $$ .............KEY.............. WCI - WIND CHILL TC - TEMPERATURE IN CELSIUS VSB - VISIBILITY IN MILES HX - HEAT INDEX FAIR- INDICATES FEW OR NO CLOUDS BELOW 12,000 FT, WITH NO SIGNIFICANT WEATHER AND/OR OBSTRUCTIONS TO VISIBILITY.

USA.gov is the U.S. government's official web portal to all federal, state and local government web resources and services.